Location: Rodson Ranch
(38.7188°N, 119.3202°W)
Time: 17:28:18
(UTC+00:00)

CZ-4B R/B - Pass Details

Date: 29 October 2020
Orbit: 389 x 462 km, 97.6° (Epoch: 22 November)

Event Time Altitude Azimuth Distance (km) Brightness Sun altitude
Rises 12:04:09 0° 141° (SE) 2,482 5.6 -27.3°
Reaches altitude 10° 12:06:25 10° 128° (SE) 1,609 4.8 -26.9°
Maximum altitude 12:09:18 25° 71° (ENE) 967 3.7 -26.3°
Enters shadow 12:11:55 12° 17° (NNE) 1,508 4.3 -25.8°
